Find Starlink 30271

NORAD ID: 57669 Int'l Des: 2023-124 Owner: SPXS Country: US Constellation: starlink operational
LEOCIRCULAR

Live-Position

3D-Globus wird geladen...

Über Starlink 30271

Beschreibung wird geladen...

Nächste Überflüge

Passes for default location (London). Set your location on the main map for personalized predictions.

Höhenverlauf

Loading altitude history...

Zweizeiliger Elementsatz

1 57669U 23124G 26126.50521061 -.00001049 00000-0 -22054-4 0 9995
2 57669 53.1612 298.3845 0000849 80.0918 280.0179 15.31697397152410
Epoch: 6. Mai 2026 • Age: 11 hours

Aktueller Status

Höhe 470.9 km
Geschwindigkeit 7.63 km/s
Subsatellitenpunkt 6.38°N, 89.39°E
Startdatum 22. Aug. 2023
Alter 2.7 years
Typ internet

Technische Details

Klassifizierung Payload
Masse 730.00 kg
Trockenmasse 700.00 kg
Gesamtmasse 730.00 kg
Länge 0.30 m
Durchmesser 4.10 m
Spannweite 29.00 m
Form Box + pan
Hersteller SPXS
Bus-Typ Starlink V2M
Phasenstatus In Orbit
Besitzer/Staat SPXS/US

Most Searched